Terminal Aerodrome Forecast
Issued by NWS

Home | Current Version | Previous Version | Text Only | Print | Product List | Glossary On
Versions: 1 2 3 4 5 6 7 8 9 10 11 12 13 14
478
FTUS45 KVEF 232320
TAFVGT
TAF
KVGT 232320Z 2400/2424 16007KT P6SM SCT150 SCT250
     FM240300 15010KT P6SM SCT150 SCT250
     FM241100 VRB06KT P6SM SCT150 BKN250
     FM241700 15012KT P6SM SCT100 BKN150=

USA.gov is the U.S. government's official web portal to all federal, state and local government web resources and services.